Location: Civry
(47.2902°N, 4.6156°E)
Time: 11:09:32
(UTC+00:00)

COSMOS 2455 - Pass Details

Date: 09 April 2020
Orbit: 900 x 910 km, 67.1° (Epoch: 25 May)

Event Time Altitude Azimuth Distance (km) Brightness Sun altitude
Rises 20:01:07 0° 324° (NW) 3,546 7.3 -16.2°
Reaches altitude 10° 20:03:39 10° 321° (NW) 2,602 6.4 -16.6°
Maximum altitude 20:09:35 62° 243° (WSW) 1,023 3.2 -17.4°
Enters shadow 20:13:56 19° 167° (SSE) 2,028 4.3 -18.0°
